Location: Endfield
(51.6667°N, 0.0667°W)
Time: 17:43:30
(UTC+00:00)

ATLAS 3B R/B - Visible Passes

Search period start: 12 June 2025 00:00
Search period end: 22 June 2025 00:00
Orbit: 935 x 1258 km, 63.8° (Epoch: 12 June)

Date Brightness Start Highest point End Pass type
(mag) Time Alt. Az. Time Alt. Az. Time Alt. Az.
12 Jun 3.0 01:25:02 10° NW 01:33:00 89° SW 01:40:40 10° SE visible
12 Jun 4.7 20:53:23 10° WNW 21:00:27 36° NNW 21:07:39 10° NE visible
12 Jun 4.5 22:46:03 10° NW 22:53:17 37° NNE 23:00:28 10° E visible
13 Jun 3.3 00:37:26 10° NW 00:45:22 70° NE 00:53:03 10° SE visible
13 Jun 3.4 02:28:39 10° NW 02:35:53 42° WSW 02:42:51 10° S visible
13 Jun 4.7 21:58:06 10° WNW 22:05:10 35° N 22:12:13 10° ENE visible
13 Jun 3.7 23:49:50 10° NW 23:57:36 55° NNE 00:05:11 10° ESE visible
14 Jun 3.1 01:40:54 10° NW 01:48:38 60° SW 01:56:04 10° SSE visible
14 Jun 4.7 21:10:00 10° WNW 21:17:00 34° N 21:24:03 10° ENE visible
14 Jun 4.1 23:02:09 10° NW 23:09:41 45° NNE 23:17:06 10° E visible
15 Jun 3.0 00:53:17 10° NW 01:01:13 82° SW 01:08:52 10° SE visible
15 Jun 4.0 02:45:01 10° WNW 02:51:01 25° WSW 02:56:51 10° SSW visible
15 Jun 4.4 22:14:22 10° NW 22:21:40 39° NNE 22:28:54 10° E visible
16 Jun 3.2 00:05:41 10° NW 00:13:39 76° NE 00:21:20 10° SE visible
16 Jun 3.5 01:56:58 10° NW 02:03:59 37° WSW 02:10:46 10° S visible
16 Jun 4.6 21:26:27 10° NW 21:33:34 35° N 21:40:40 10° ENE visible
16 Jun 3.6 23:18:05 10° NW 23:25:55 59° NE 23:33:32 10° ESE visible
17 Jun 3.2 01:09:10 10° NW 01:16:48 54° WSW 01:24:07 10° SSE visible
17 Jun 4.0 22:30:26 10° NW 22:38:03 47° NNE 22:45:30 10° E visible
18 Jun 3.0 00:21:32 10° NW 00:29:26 76° SW 00:37:02 10° SSE visible
18 Jun 4.1 02:13:28 10° WNW 02:19:04 22° WSW 02:24:29 10° SSW visible
18 Jun 4.3 21:42:41 10° NW 21:50:03 40° NNE 21:57:20 10° E visible
18 Jun 3.1 23:33:56 10° NW 23:41:54 82° NE 23:49:36 10° SE visible
19 Jun 3.7 01:25:18 10° NW 01:32:06 33° WSW 01:37:28 15° SSW visible
19 Jun 4.5 20:54:48 10° NW 21:01:58 36° N 21:09:05 10° ENE visible
19 Jun 3.4 22:46:21 10° NW 22:54:13 63° NE 23:01:52 10° ESE visible
20 Jun 3.3 00:37:28 10° NW 00:44:57 48° WSW 00:50:37 17° S visible
20 Jun 4.7 02:31:48 10° W 02:33:51 11° W 02:35:52 10° WSW visible
20 Jun 3.8 21:58:43 10° NW 22:06:23 50° NNE 22:13:53 10° ESE visible
20 Jun 3.0 23:49:47 10° NW 23:57:38 69° SW 00:03:53 16° SSE visible
21 Jun 4.3 01:42:01 10° WNW 01:47:06 19° WSW 01:51:04 13° SW visible
21 Jun 4.1 21:10:59 10° NW 21:18:26 42° NNE 21:25:46 10° E visible
21 Jun 3.0 23:02:11 10° NW 23:10:09 88° NE 23:17:15 13° SE visible
